Weather History for KVSH - July, 2013

Change the Weather History Date:

Tuesday, July 9, 2013

  Actual Average (KMAI) Record (KMAI)
Temperature  
Mean Temperature 84 °F 82 °F  
Max Temperature 91 °F 92 °F - ()
Min Temperature 77 °F 72 °F - ()
Degree Days  
Heating Degree Days 0    
Month to date heating degree days  
Since 1 June heating degree days  
Since 1 July heating degree days  
Cooling Degree Days 19    
Month to date cooling degree days  
Year to date cooling degree days  
Since 1 June cooling degree days  
Growing Degree Days 34 (Base 50)    
Moisture  
Dew Point 72 °F    
Average Humidity 70    
Maximum Humidity 89    
Minimum Humidity 52    
Precipitation  
Precipitation 0.00 in 0.17 in - ()
Month to date precipitation 1.62  
Year to date precipitation 29.41  
Sea Level Pressure  
Sea Level Pressure 30.15 in    
Wind  
Wind Speed 2 mph (SSE)    
Max Wind Speed 9 mph    
Max Gust Speed -    
Visibility 10 miles    
Events      
T = Trace of Precipitation, MM = Missing Value Source: NWS Daily Summary

Daily Weather History Graph

Daily Weather History Graph

Search for Another Location

Airport or City:

Trip Planner

Search our weather history database for the weather conditions in past years. The results will help you decide how hot, cold, wet, or windy it might be!

Date:

Astronomy

Jul. 09, 2013 Rise Set
Actual Time 5:46 AM CDT 7:48 PM CDT
Civil Twilight 5:19 AM CDT 8:15 PM CDT
Nautical Twilight 4:46 AM CDT 8:49 PM CDT
Astronomical Twilight 4:10 AM CDT 9:24 PM CDT
Moon 7:01 AM CDT (7/9) 8:36 PM CDT (7/9)
Length of Visible Light 14h 56m
Length of Day
14h 01m
New Moon, 2% of the Moon is Illuminated
Jul 9
New Moon
Jul 15
First Quarter
Jul 22
Full
Jul 29
Last Quarter
Aug 6
New

Hourly Weather History & Observations

Time (CDT) Temp. Heat Index Dew Point Humidity Pressure Visibility Wind Dir Wind Speed Gust Speed Precip Events Conditions
12:15 AM 78.8 °F - 73.4 °F 83% 30.16 in 10.0 mi Calm Calm - N/A   Clear
12:35 AM 78.8 °F - 73.4 °F 83% 30.16 in 10.0 mi Calm Calm - N/A   Partly Cloudy
12:55 AM 77.0 °F - 73.4 °F 89% 30.16 in 10.0 mi Calm Calm - N/A   Mostly Cloudy
1:15 AM 78.8 °F - 73.4 °F 83% 30.15 in 10.0 mi Calm Calm - N/A   Overcast
1:35 AM 77.0 °F - 73.4 °F 89% 30.15 in 10.0 mi Calm Calm - N/A   Mostly Cloudy
1:55 AM 77.0 °F - 73.4 °F 89% 30.14 in 10.0 mi Calm Calm - N/A   Scattered Clouds
2:15 AM 77.0 °F - 73.4 °F 89% 30.14 in 10.0 mi Calm Calm - N/A   Clear
2:35 AM 77.0 °F - 71.6 °F 83% 30.14 in 10.0 mi Calm Calm - N/A   Clear
2:55 AM 77.0 °F - 71.6 °F 83% 30.14 in 10.0 mi Calm Calm - N/A   Clear
3:15 AM 77.0 °F - 71.6 °F 83% 30.14 in 10.0 mi Calm Calm - N/A   Clear
3:35 AM 77.0 °F - 71.6 °F 83% 30.14 in 10.0 mi Calm Calm - N/A   Clear
3:55 AM 77.0 °F - 71.6 °F 83% 30.14 in 10.0 mi Calm Calm - N/A   Clear
4:15 AM 77.0 °F - 71.6 °F 83% 30.15 in 10.0 mi Calm Calm - N/A   Clear
4:35 AM 77.0 °F - 71.6 °F 83% 30.14 in 10.0 mi Calm Calm - N/A   Clear
4:55 AM 77.0 °F - 71.6 °F 83% 30.14 in 10.0 mi Calm Calm - N/A   Clear
5:15 AM 78.8 °F - 71.6 °F 78% 30.15 in 10.0 mi SE 3.5 mph - N/A   Clear
5:35 AM 78.8 °F - 71.6 °F 78% 30.15 in 10.0 mi Calm Calm - N/A   Clear
5:55 AM 77.0 °F - 71.6 °F 83% 30.16 in 10.0 mi Calm Calm - N/A   Clear
6:15 AM 77.0 °F - 71.6 °F 83% 30.16 in 10.0 mi Calm Calm - N/A   Clear
6:35 AM 77.0 °F - 71.6 °F 83% 30.17 in 10.0 mi Calm Calm - N/A   Clear
6:55 AM 78.8 °F - 71.6 °F 78% 30.17 in 10.0 mi Calm Calm - N/A   Clear
7:15 AM 78.8 °F - 71.6 °F 78% 30.17 in 10.0 mi Calm Calm - N/A   Clear
7:35 AM 78.8 °F - 73.4 °F 83% 30.17 in 10.0 mi Calm Calm - N/A   Clear
7:55 AM 80.6 °F 84.6 °F 71.6 °F 74% 30.18 in 10.0 mi Calm Calm - N/A   Clear
8:15 AM 80.6 °F 84.6 °F 71.6 °F 74% 30.19 in 10.0 mi Calm Calm - N/A   Clear
8:35 AM 82.4 °F 87.2 °F 71.6 °F 70% 30.20 in 10.0 mi Calm Calm - N/A   Clear
8:55 AM 80.6 °F 84.6 °F 71.6 °F 74% 30.20 in 10.0 mi Calm Calm - N/A   Clear
9:15 AM 82.4 °F 87.2 °F 71.6 °F 70% 30.20 in 10.0 mi North 4.6 mph - N/A   Clear
9:35 AM 82.4 °F 87.2 °F 71.6 °F 70% 30.20 in 10.0 mi North 3.5 mph - N/A   Clear
9:55 AM 82.4 °F 87.2 °F 71.6 °F 70% 30.20 in 10.0 mi Calm Calm - N/A   Clear
10:15 AM 82.4 °F 87.2 °F 71.6 °F 70% 30.21 in 10.0 mi WNW 3.5 mph - N/A   Scattered Clouds
10:35 AM 84.2 °F 89.6 °F 71.6 °F 66% 30.20 in 10.0 mi Calm Calm - N/A   Mostly Cloudy
10:55 AM 84.2 °F 89.6 °F 71.6 °F 66% 30.20 in 10.0 mi Calm Calm - N/A   Partly Cloudy
11:15 AM 84.2 °F 89.6 °F 71.6 °F 66% 30.20 in 10.0 mi NW 3.5 mph - N/A   Scattered Clouds
11:35 AM 86.0 °F 91.8 °F 71.6 °F 62% 30.20 in 10.0 mi NNE 4.6 mph - N/A   Scattered Clouds
11:55 AM 84.2 °F 89.6 °F 71.6 °F 66% 30.20 in 10.0 mi North 4.6 mph - N/A   Partly Cloudy
12:15 PM 87.8 °F 93.8 °F 71.6 °F 58% 30.19 in 10.0 mi NE 4.6 mph - N/A   Clear
12:35 PM 87.8 °F 93.8 °F 71.6 °F 58% 30.19 in 10.0 mi NE 4.6 mph - N/A   Partly Cloudy
12:55 PM 86.0 °F 91.8 °F 71.6 °F 62% 30.18 in 10.0 mi WNW 3.5 mph - N/A   Mostly Cloudy
1:15 PM 87.8 °F 93.8 °F 71.6 °F 58% 30.17 in 10.0 mi North 4.6 mph - N/A   Overcast
1:35 PM 86.0 °F 91.8 °F 71.6 °F 62% 30.17 in 10.0 mi North 4.6 mph - N/A   Overcast
1:55 PM 87.8 °F 93.8 °F 71.6 °F 58% 30.16 in 10.0 mi Calm Calm - N/A   Overcast
2:15 PM 89.6 °F 96.2 °F 71.6 °F 55% 30.15 in 10.0 mi Calm Calm - N/A   Scattered Clouds
2:35 PM 89.6 °F 96.2 °F 71.6 °F 55% 30.15 in 10.0 mi Calm Calm - N/A   Mostly Cloudy
2:55 PM 89.6 °F 96.2 °F 71.6 °F 55% 30.14 in 10.0 mi SSE 4.6 mph - N/A   Overcast
3:15 PM 89.6 °F 94.7 °F 69.8 °F 52% 30.14 in 10.0 mi NE 3.5 mph - N/A   Overcast
3:35 PM 87.8 °F 93.8 °F 71.6 °F 58% 30.13 in 10.0 mi SSW 3.5 mph - N/A   Overcast
3:55 PM 87.8 °F 92.6 °F 69.8 °F 55% 30.13 in 10.0 mi SSE 3.5 mph - N/A   Overcast
4:15 PM 84.2 °F 89.6 °F 71.6 °F 66% 30.13 in 10.0 mi WNW 8.1 mph - N/A   Overcast
4:35 PM 84.2 °F 89.6 °F 71.6 °F 66% 30.12 in 10.0 mi Calm Calm - N/A   Mostly Cloudy
4:55 PM 87.8 °F 93.8 °F 71.6 °F 58% 30.12 in 10.0 mi Calm Calm - N/A   Overcast
5:15 PM 89.6 °F 98.2 °F 73.4 °F 59% 30.11 in 10.0 mi Calm Calm - N/A   Overcast
5:35 PM 89.6 °F 98.2 °F 73.4 °F 59% 30.10 in 10.0 mi Calm Calm - N/A   Mostly Cloudy
5:55 PM 91.4 °F 100.1 °F 73.4 °F 55% 30.09 in 10.0 mi South 5.8 mph - N/A   Overcast
6:15 PM 89.6 °F 98.2 °F 73.4 °F 59% 30.09 in 10.0 mi SSE 9.2 mph - N/A   Mostly Cloudy
6:35 PM 87.8 °F 95.6 °F 73.4 °F 62% 30.09 in 10.0 mi South 6.9 mph - N/A   Mostly Cloudy
6:55 PM 87.8 °F 93.8 °F 71.6 °F 58% 30.10 in 10.0 mi SSE 8.1 mph - N/A   Partly Cloudy
7:15 PM 87.8 °F 93.8 °F 71.6 °F 58% 30.10 in 10.0 mi South 8.1 mph - N/A   Clear
7:35 PM 86.0 °F 91.8 °F 71.6 °F 62% 30.10 in 10.0 mi South 8.1 mph - N/A   Clear
7:55 PM 86.0 °F 91.8 °F 71.6 °F 62% 30.11 in 10.0 mi South 8.1 mph - N/A   Clear
8:15 PM 84.2 °F 89.6 °F 71.6 °F 66% 30.11 in 10.0 mi South 5.8 mph - N/A   Clear
8:35 PM 84.2 °F 89.6 °F 71.6 °F 66% 30.10 in 10.0 mi South 4.6 mph - N/A   Clear
8:55 PM 84.2 °F 89.6 °F 71.6 °F 66% 30.10 in 10.0 mi South 4.6 mph - N/A   Clear
9:15 PM 84.2 °F 89.6 °F 71.6 °F 66% 30.11 in 10.0 mi South 6.9 mph - N/A   Clear
9:35 PM 84.2 °F 89.6 °F 71.6 °F 66% 30.12 in 10.0 mi SSE 5.8 mph - N/A   Clear
9:55 PM 82.4 °F 88.2 °F 73.4 °F 74% 30.12 in 10.0 mi SSE 4.6 mph - N/A   Clear
10:15 PM 82.4 °F 88.2 °F 73.4 °F 74% 30.13 in 10.0 mi South 5.8 mph - N/A   Clear
10:35 PM 82.4 °F 88.2 °F 73.4 °F 74% 30.13 in 10.0 mi South 4.6 mph - N/A   Clear
10:55 PM 82.4 °F 88.2 °F 73.4 °F 74% 30.13 in 10.0 mi South 4.6 mph - N/A   Clear
11:15 PM 82.4 °F 88.2 °F 73.4 °F 74% 30.13 in 10.0 mi South 4.6 mph - N/A   Unknown
11:35 PM 82.4 °F 88.2 °F 73.4 °F 74% 30.13 in 10.0 mi South 4.6 mph - N/A   Clear
11:55 PM 82.4 °F 88.2 °F 73.4 °F 74% 30.12 in 10.0 mi South 4.6 mph - N/A   Clear